Content
SEND FEEDBACK

Daily
Averages
Monthly
Summary
United States of America

MAURICEVILLE, TEXAS


Home > North America > United States > Texas
Elevation: 20 feet     Latitude: 30 14N     Longitude: 093 44W

WEATHER
 
SELECT A DAY
Number of Records: 110,785;   Date Range: 8/25/05 - 9/21/14
 
SHARE

PRINT THIS DATA

[ ← Previous Day ]
WEATHER ALMANAC - JULY 28, 2013
[ Next Day → ]
[ °C ]   °F
Weather ElementAverageHighLow
Temperature78.7 °F86.9 °F (1:15 pm)74.7 °F (5:35 am)
Dewpoint74.6 °F77.4 °F (7:55 pm)72.5 °F (2:15 am)
Humidity87.5 %96 % (9:35 pm)70 % (12:55 pm)
Barometer29.97 in30.02 in (11:55 pm)29.93 in (1:55 am)
Wind Speed3.3 mph12.7 mph (1:35 pm)
Wind Gust16.1 mph (1:35 pm)
Weather ElementAverage
Visibility8.7 mi
Wind DirectionNE (49.9 °)

Weather ElementTotal
Precipitation0.02 in
Cooling Degree Days15.8 (Base 65)
Growing Degree Days30.8 (Base 50)
Averaged from 71 records on July 28, 2013
WEATHER CONDITIONS BREAKOUT
WIND DIRECTION BREAKOUT
WEATHER BY HOUR - JULY 28, 2013
[ °C ]   °F
Local TimeTemperatureDewpointHumidityBarometerVisibilityWind DirectionWind SpeedGust SpeedPrecipitationEventsConditions
12:35 AM78.1 °F74.8 °F90 %29.94 in10.0 miNNE (30°)8.1 mphOvercast
12:55 AM78.1 °F73.4 °F85 %29.94 in10.0 miNNE (30°)5.8 mphMostly Cloudy
1:15 AM78.1 °F73.4 °F85 %29.94 in10.0 miNNE (20°)4.6 mphMostly Cloudy
1:35 AM77.4 °F72.9 °F86 %29.94 in10.0 miNE (40°)5.8 mphMostly Cloudy
1:55 AM76.5 °F72.7 °F88 %29.93 in10.0 miNNE (30°)8.1 mphScattered Clouds
2:15 AM76.1 °F72.5 °F89 %29.93 in10.0 miNE (40°)4.6 mphScattered Clouds
2:35 AM76.3 °F72.5 °F88 %29.93 in10.0 miNE (50°)6.9 mphMostly Cloudy
2:55 AM76.1 °F72.5 °F89 %29.93 in10.0 miNNE (30°)4.6 mphOvercast
3:15 AM76.3 °F72.5 °F88 %29.93 in10.0 miENE (60°)8.1 mphThunderstormOvercast
3:35 AM76.1 °F72.7 °F89 %29.93 in10.0 miENE (70°)6.9 mphOvercast
3:55 AM75.7 °F72.7 °F90 %29.93 in10.0 miNE (40°)3.5 mphOvercast
4:15 AM75.6 °F72.7 °F91 %29.93 in10.0 miCalmMostly Cloudy
4:35 AM75.2 °F72.7 °F92 %29.94 in10.0 miCalmMostly Cloudy
4:55 AM75.2 °F72.9 °F92 %29.94 in10.0 miCalmOvercast
5:15 AM74.8 °F72.9 °F94 %29.94 in10.0 miCalmOvercast
5:35 AM74.7 °F72.7 °F94 %29.94 in10.0 miCalmOvercast
5:55 AM74.8 °F72.9 °F94 %29.95 in10.0 miCalmOvercast
6:15 AM75.2 °F73.0 °F93 %29.95 in10.0 miNorth (10°)3.5 mphOvercast
6:35 AM74.8 °F72.9 °F94 %29.96 in10.0 miCalmOvercast
6:55 AM74.8 °F72.9 °F94 %29.96 in7.0 miNorth (350°)3.5 mphOvercast
7:15 AM75.2 °F72.9 °F92 %29.96 in10.0 miCalmOvercast
7:35 AM75.7 °F73.0 °F91 %29.96 in10.0 miNNE (30°)4.6 mphOvercast
7:55 AM76.5 °F73.4 °F90 %29.97 in10.0 miNE (40°)6.9 mphOvercast
8:15 AM77.4 °F73.4 °F88 %29.98 in10.0 miENE (70°)8.1 mphScattered Clouds
8:35 AM77.7 °F73.6 °F87 %29.98 in10.0 miEast (80°)9.2 mphScattered Clouds
8:55 AM78.4 °F73.8 °F85 %29.99 in10.0 miEast (90°)5.8 mphMostly Cloudy
9:15 AM80.6 °F74.8 °F83 %29.99 in10.0 miEast (100°)6.9 mphMostly Cloudy
9:35 AM81.9 °F75.2 °F80 %29.99 in10.0 miEast (80°)4.6 mphScattered Clouds
9:55 AM82.6 °F75.4 °F79 %29.99 in10.0 miEast (90°)5.8 mphScattered Clouds
10:15 AM83.5 °F75.4 °F76 %29.99 in10.0 miCalmClear
10:35 AM84.2 °F76.1 °F77 %29.99 in10.0 miSE (140°)3.5 mphMostly Cloudy
10:55 AM84.6 °F75.7 °F75 %29.99 in10.0 miSE (140°)3.5 mphOvercast
11:15 AM84.9 °F75.2 °F73 %29.99 in10.0 miCalmMostly Cloudy
11:35 AM84.4 °F75.4 °F74 %30.00 in10.0 miCalmOvercast
11:55 AM85.3 °F75.4 °F72 %29.99 in10.0 miCalmMostly Cloudy
12:15 PM85.3 °F75.7 °F73 %29.99 in10.0 miCalmOvercast
12:35 PM85.1 °F75.7 °F73 %29.98 in10.0 miNNE (30°)3.5 mphOvercast
12:55 PM86.7 °F75.9 °F70 %29.98 in10.0 miNorth (10°)4.6 mphScattered Clouds
1:15 PM86.9 °F76.1 °F70 %29.98 in10.0 miSE (130°)3.5 mphScattered Clouds
1:35 PM80.4 °F77.0 °F89 %29.99 in2.5 miSSE (150°)12.7 mph16.1 mph0.01 inRainRain
1:55 PM79.5 °F75.7 °F88 %29.98 in5.0 miSE (140°)5.8 mph0.01 inRainRain
2:15 PM78.3 °F75.2 °F90 %29.98 in7.0 miEast (80°)9.2 mphOvercast
2:35 PM79.3 °F75.4 °F88 %29.98 in10.0 miEast (100°)8.1 mphThunderstormThunderstorm
2:55 PM80.2 °F75.4 °F85 %29.98 in10.0 miNNE (30°)8.1 mphMostly Cloudy
3:15 PM80.2 °F75.0 °F84 %29.98 in10.0 miENE (70°)5.8 mphMostly Cloudy
3:35 PM80.8 °F75.4 °F84 %29.97 in10.0 miNE (50°)4.6 mphScattered Clouds
3:55 PM80.6 °F75.4 °F84 %29.96 in10.0 miENE (60°)3.5 mphThunderstormThunderstorm
4:15 PM81.0 °F75.6 °F84 %29.97 in10.0 miENE (70°)3.5 mphThunderstormThunderstorm
4:35 PM78.8 °F75.2 °F89 %29.99 in7.0 miWest (270°)5.8 mphRain-ThunderstormLight Thunderstorms and Rain
4:55 PM76.3 °F74.1 °F93 %29.99 in2.5 miWest (260°)8.1 mphRain-ThunderstormHeavy Thunderstorms and Rain
5:15 PM75.6 °F73.8 °F94 %29.98 in1.5 miSouth (190°)5.8 mphRain-ThunderstormHeavy Thunderstorms and Rain
5:35 PM76.1 °F73.4 °F91 %29.97 in7.0 miEast (100°)4.6 mphRainLight Rain
5:55 PM76.6 °F73.8 °F91 %29.97 in10.0 miSE (140°)3.5 mphMostly Cloudy
6:15 PM78.1 °F75.0 °F90 %29.95 in10.0 miCalmMostly Cloudy
6:35 PM80.6 °F76.3 °F87 %29.95 in10.0 miCalmOvercast
6:55 PM81.0 °F76.5 °F86 %29.95 in10.0 miCalmMostly Cloudy
7:15 PM81.5 °F75.7 °F83 %29.96 in10.0 miCalmOvercast
7:35 PM80.6 °F77.0 °F89 %29.97 in10.0 miCalmScattered Clouds
7:55 PM80.8 °F77.4 °F89 %29.96 in10.0 miCalmClear
8:15 PM79.9 °F77.4 °F92 %29.96 in10.0 miCalmClear
8:35 PM79.0 °F76.6 °F92 %29.96 in7.0 miCalmClear
8:55 PM77.9 °F76.1 °F94 %29.96 in7.0 miCalmClear
9:15 PM77.9 °F76.1 °F94 %29.97 in7.0 miCalmClear
9:35 PM77.0 °F75.9 °F96 %29.98 in4.0 miCalmClear
9:55 PM76.8 °F75.6 °F96 %30.00 in2.5 miCalmMist
10:15 PM76.8 °F75.6 °F96 %30.00 in7.0 miCalmClear
10:35 PM77.4 °F76.1 °F96 %30.01 in7.0 miCalmClear
10:55 PM76.6 °F75.2 °F95 %30.01 in5.0 miCalmClear
11:15 PM77.0 °F75.6 °F95 %30.01 in5.0 miCalmClear
11:35 PM75.6 °F74.5 °F96 %30.01 in4.0 miCalmClear
11:55 PM76.1 °F74.8 °F96 %30.02 in5.0 miCalmClear
Hourly data recorded from KORG, located miles away from Mauriceville, Texas







STORIES FROM OUR PARTNERS